Location: Warszawa
(52.2500°N, 21.0000°E)
Time: 00:21:16
(UTC+01:00)

A-11 Canister half - Pass Details

Date: 15 February 2023
Orbit: 1526 x 1682 km, 47.3° (Epoch: 22 March)

Event Time Altitude Azimuth Distance (km) Brightness Sun altitude
Exits shadow 03:46:16 46° 212° (SSW) 1,963 9.2 -28.8°
Maximum altitude 03:48:46 58° 164° (SSE) 1,736 9.1 -28.5°
Drops below altitude 10° 03:57:50 10° 88° (E) 3,712 11.9 -27.1°
Sets 04:00:57 0° 85° (E) 4,707 12.8 -26.7°
